Location: Catstown
(52.4386°N, 7.2633°W)
Time: 10:29:15
(UTC+00:00)

Cosmos 1833 Rocket - Pass Details

Date: 18 January 2021
Orbit: 833 x 839 km, 71.0° (Epoch: 24 February)

Event Time Altitude Azimuth Distance (km) Brightness Sun altitude
Rises 20:02:05 0° 329° (NNW) 3,393 6.3 -28.5°
Reaches altitude 10° 20:04:35 10° 333° (NNW) 2,456 5.4 -28.9°
Enters shadow 20:08:16 39° 353° (N) 1,229 3.5 -29.4°
